This is the latest recevied weather packets stored in our database for station/object SV2ASS-2. If no packets are shown the sender has not sent any weather packets the latest 10 day(s).
| Time | Temp. | Humidity | Pressure | Rain* | Wind** | Luminosity | Snow |
|---|---|---|---|---|---|---|---|
| 1777671763 | 10.56° C | 62% | 1026.3 hPa | - | - | - | - |
| 1777670863 | 8.89° C | 64% | 1026.3 hPa | - | - | - | - |
| 1777669963 | 8.89° C | 67% | 1026.3 hPa | - | - | - | - |
| 1777669067 | 9.44° C | 66% | 1026.3 hPa | - | - | - | - |
| 1777668167 | 8.89° C | 65% | 1026.3 hPa | - | - | - | - |
| 1777667267 | 9.44° C | 66% | 1026.2 hPa | - | - | - | - |
| 1777666367 | 9.44° C | 67% | 1026.2 hPa | - | - | - | - |
| 1777665467 | 10° C | 65% | 1026.1 hPa | - | - | - | - |
| 1777664567 | 9.44° C | 66% | 1026.1 hPa | - | - | - | - |
| 1777663667 | 9.44° C | 66% | 1026.1 hPa | - | - | - | - |
| 1777662767 | 9.44° C | 67% | 1026 hPa | - | - | - | - |
| 1777661867 | 10° C | 66% | 1025.9 hPa | - | - | - | - |
| 1777660967 | 10° C | 66% | 1025.7 hPa | - | - | - | - |
| 1777660067 | 10° C | 66% | 1025.7 hPa | - | - | - | - |
| 1777659167 | 10° C | 64% | 1025.6 hPa | - | - | - | - |
| 1777658267 | 10.56° C | 64% | 1025.4 hPa | - | - | - | - |
| 1777657366 | 10.56° C | 63% | 1025.2 hPa | - | - | - | - |
| 1777656466 | 11.11° C | 61% | 1025.1 hPa | - | - | - | - |
| 1777655566 | 11.11° C | 60% | 1025.1 hPa | - | - | - | - |
| 1777654666 | 11.67° C | 61% | 1025 hPa | - | - | - | - |
| 1777653765 | 12.22° C | 61% | 1024.9 hPa | - | - | - | - |
| 1777652866 | 12.22° C | 63% | 1024.7 hPa | - | - | - | - |
| 1777651965 | 12.22° C | 63% | 1024.4 hPa | - | - | - | - |
| 1777651065 | 12.78° C | 61% | 1024.3 hPa | - | - | - | - |
| 1777650165 | 12.78° C | 59% | 1024.3 hPa | - | - | - | - |
* Rain since midnight (hover to see other rain measurements)
** Current wind speed in m/s (hover to see current wind gust speed)